Weather Roundup
Issued by NWS Corpus Christi, TX

Home | Current Version | Previous Version | Text Only | Print | Product List | Glossary On
Versions: 1 2 3 4 5 6 7 8 9 10 11 12 13 14 15 16 17 18 19 20 21 22 23 24 25 26 27 28 29 30 31 32 33 34 35 36 37 38 39 40 41 42 43 44 45 46 47 48 49 50
000
ASUS44 KCRP 282310
HRRCRP

SOUTH TEXAS REGIONAL WEATHER ROUNDUP
NATIONAL WEATHER SERVICE CORPUS CHRISTI TX
600 PM CDT WED JUN 28 2017


TXZ229>244-290000-
...CORPUS CHRISTI AREA OBSERVATIONS...

CITY           SKY/WX    TMP DP  RH WIND       PRES   REMARKS
CORPUS CHRISTI PTSUNNY   85  75  72 E12       29.80F HX  93
NAS CORPUS CHR PTSUNNY   88  76  67 E10       29.81F HX  99
ROCKPORT       MOSUNNY   85  74  69 E10       29.80F HX  92
KINGSVILLE NAS MOSUNNY   91  78  65 E14       29.79F HX 106
ALICE          PTSUNNY   89  72  56 E14G24    29.80S HX  96
ORANGE GROVE   MOSUNNY   90  75  61 E18       29.81F HX 100
FALFURRIAS     MOSUNNY   95  68  41 E8        29.79S HX  99
$$

...VICTORIA AREA OBSERVATIONS...

CITY           SKY/WX    TMP DP  RH WIND       PRES   REMARKS
VICTORIA       SUNNY     88  74  63 E8        29.83F HX  96
BEEVILLE       FAIR      91  73  56 E10       29.81F HX  99
PLEASANTON     SUNNY     93  65  39 E10       29.83F HX  95
SAN ANTONIO    MOSUNNY   89  66  46 E7        29.85F HX  91
$$

...LAREDO AREA OBSERVATIONS...

CITY           SKY/WX    TMP DP  RH WIND       PRES   REMARKS
LAREDO         SUNNY     97  68  38 NE10G18   29.78F HX 102
COTULLA        MOSUNNY   93  63  36 SE9       29.80F HX  94
DEL RIO        SUNNY     93  66  40 SE16      29.79F HX  96
MCALLEN        CLOUDY    94  73  50 SE17      29.80R HX 103
HEBBRONVILLE   SUNNY     93  64  37 E6        29.81F HX  94
$$

...OTHER TEXAS OBSERVATIONS...

CITY           SKY/WX    TMP DP  RH WIND       PRES   REMARKS
BROWNSVILLE    CLOUDY    83  78  85 SE10      29.83R HX  93
HOUSTON        MOSUNNY   86  73  65 E17G23    29.85F HX  93
COL. STATION   SUNNY     91  69  48 E12       29.84F HX  96
AUSTIN         MOSUNNY   93  68  43 E6        29.83F HX  97
WACO           MOSUNNY   89  68  49 SE12      29.86F HX  93
FORT WORTH     MOSUNNY   90  69  50 SE15G22   29.84F HX  94
WICHITA FALLS  MOSUNNY   89  67  47 S25       29.80F HX  92
LUBBOCK        MOSUNNY   96  58  27 S16G28    29.82F HX  95
EL PASO        MOSUNNY  101  26   7 NW18G28   29.88F HX  94
$$

...MARINE OBSERVATIONS...

STATION/POSITION TIME  SKY/WX   TEMP    WIND        PRES    VSBY  WAVE   SWELL
                                AIR SEA DIR/SP/G                  HT/PER HT/PER
                 (UTC)          (F)     (DEG/KT/KT) (MB)    (MI)  (FT/S) (FT/S)
PORT ARANSAS     2300            83 85   80/  8/  9 1009.8F
BUOY 90 E PORT A 2150            79 84  140/  4/  6 1010.7          4/ 6   3/ 6
BUOY 45 SE BAFFI 2150            83     190/  4/  6 1009.5          3/ 6   2/ 6
BUOY 200 E PT IS 2250            75 84  180/  4/  8 1013.0R         4/ 6   3/ 6
BUOY 15 E GALVES 2150            80 83  130/ 10/ 14 1011.2          4/ 6   3/ 6
$$




USA.gov is the U.S. government's official web portal to all federal, state and local government web resources and services.